DW6368 Weather Reports


Display with metric or nautical units.
time (UTC)temp
F
wind
direction
speed
MPH
gust
MPH
rain 1hr
in
rain 24hr
in
rain mn
in
humidity
%
barometer
mb
20260831193303 84 189 2.0 6.0 0.00 0.00 0.00 70 1012.6
20260831191302 84 192 2.0 9.0 0.00 0.00 0.00 70 1012.7
20260831190303 84 186 2.0 6.0 0.00 0.00 0.00 70 1012.7
20260831184303 84 221 2.0 5.0 0.00 0.00 0.00 70 1012.9
20260831183303 84 196 2.0 6.0 0.00 0.00 0.00 71 1012.8
20260831181303 83 161 1.0 4.0 0.00 0.00 0.00 70 1012.8
20260831180303 82 255 1.0 4.0 0.00 0.00 0.00 72 1012.7
20260831174324 82 193 1.0 6.0 0.00 0.00 0.00 73 1012.8
20260831173302 82 204 2.0 7.0 0.00 0.00 0.00 73 1012.7
20260831171303 81 193 1.0 4.0 0.00 0.00 0.00 75 1012.6
20260831170302 81 65 0.0 2.0 0.00 0.00 0.00 72 1012.6
20260831164303 80 199 1.0 4.0 0.00 0.00 0.00 75 1012.6
20260831163302 79 171 1.0 5.0 0.00 0.00 0.00 78 1012.5
20260831161302 76 99 1.0 3.0 0.00 0.00 0.00 81 1012.4
20260831160303 75 90 1.0 3.0 0.00 0.00 0.00 83 1012.4
20260831154303 74 242 1.0 3.0 0.00 0.00 0.00 89 1012.3
20260831153303 73 141 1.0 3.0 0.00 0.00 0.00 91 1012.3
20260831151302 71 50 0.0 2.0 0.00 0.00 0.00 95 1012.3
20260831150303 71 181 1.0 2.0 0.00 0.00 0.00 96 1012.3
20260831144303 69 268 0.0 1.0 0.00 0.00 0.00 99 1012.0
20260831143302 68 31 0.0 1.0 0.00 0.00 0.00 98 1012.0
20260831141303 67 66 0.0 1.0 0.00 0.00 0.00 98 1011.6
20260831140303 67 357 0.0 1.0 0.00 0.00 0.00 98 1011.5
20260831134302 67 9 0.0 1.0 0.00 0.00 0.00 97 1011.4
20260831133303 67 51 0.0 1.0 0.00 0.00 0.00 97 1011.2
20260831131303 67 178 0.0 1.0 0.00 0.00 0.00 96 1011.1
20260831130303 67 137 0.0 1.0 0.00 0.00 0.00 96 1011.1
20260831124303 67 9 0.0 1.0 0.00 0.00 0.00 96 1010.9
20260831123303 67 51 0.0 0.0 0.00 0.00 0.00 96 1011.0
20260831121302 67 265 0.0 0.0 0.00 0.00 0.00 96 1010.8
20260831114302 67 93 0.0 1.0 0.00 0.00 0.00 95 1010.9
20260831113302 67 51 0.0 1.0 0.00 0.00 0.00 95 1010.9
20260831111324 67 51 0.0 1.0 0.00 0.00 0.00 95 1011.0
20260831110303 68 68 0.0 1.0 0.00 0.00 0.00 95 1011.0
20260831104324 68 9 0.0 1.0 0.00 0.00 0.00 95 1011.1
20260831103304 67 34 0.0 0.0 0.00 0.00 0.00 94 1011.1
20260831101302 68 9 0.0 1.0 0.00 0.00 0.00 93 1011.0
20260831100303 68 51 0.0 0.0 0.00 0.00 0.00 93 1011.1
20260831094303 68 29 0.0 1.0 0.00 0.00 0.00 92 1011.0
20260831093303 68 51 0.0 0.0 0.00 0.00 0.00 92 1011.0
20260831091303 68 9 0.0 1.0 0.00 0.00 0.00 91 1010.8
20260831090302 68 51 0.0 1.0 0.00 0.00 0.00 91 1010.8
20260831084302 68 74 0.0 1.0 0.00 0.00 0.00 90 1010.8
20260831083303 68 9 0.0 1.0 0.00 0.00 0.00 89 1010.9
20260831081324 68 51 0.0 1.0 0.00 0.00 0.00 89 1011.1
20260831080303 68 51 0.0 0.0 0.00 0.00 0.00 88 1011.1
20260831074302 69 51 0.0 1.0 0.00 0.00 0.00 88 1011.1
20260831073303 69 178 0.0 0.0 0.00 0.00 0.00 88 1011.1
20260831071303 69 221 0.0 1.0 0.00 0.00 0.00 86 1011.0
20260831070303 69 264 0.0 1.0 0.00 0.00 0.00 86 1011.0
20260831064303 70 221 0.0 0.0 0.00 0.00 0.00 85 1010.8
20260831063302 70 51 0.0 1.0 0.00 0.00 0.00 84 1010.7
20260831061324 71 9 0.0 1.0 0.00 0.00 0.00 83 1010.7
20260831060302 71 36 0.0 1.0 0.00 0.00 0.00 82 1010.7
20260831054324 72 28 0.0 1.0 0.00 0.00 0.00 79 1010.7
20260831053302 72 50 0.0 1.0 0.00 0.00 0.00 78 1010.8
20260831051303 73 51 0.0 1.0 0.00 0.00 0.00 77 1010.8
20260831050304 73 348 0.0 2.0 0.00 0.00 0.00 77 1010.8
20260831044324 73 334 0.0 1.0 0.00 0.00 0.00 75 1010.8
20260831043303 74 34 0.0 2.0 0.00 0.00 0.00 75 1010.7
20260831041303 74 24 0.0 4.0 0.00 0.00 0.00 74 1010.4
20260831034303 75 297 2.0 4.0 0.00 0.00 0.00 74 1010.0
20260831033324 75 350 0.0 5.0 0.00 0.00 0.00 72 1009.9
20260831031303 75 317 1.0 6.0 0.00 0.00 0.00 74 1009.5
20260831030302 75 310 2.0 5.0 0.00 0.00 0.00 76 1009.3
20260831024303 76 311 1.0 6.0 0.00 0.00 0.00 79 1009.3
20260831023302 76 308 2.0 6.0 0.00 0.00 0.00 79 1009.3
20260831021303 78 306 3.0 7.0 0.00 0.00 0.00 76 1009.1
20260831020303 79 299 2.0 7.0 0.00 0.00 0.00 75 1009.1
20260831014803 81 303 2.0 5.0 0.00 0.00 0.00 73 1009.0
20260831013547 82 298 1.0 0.0 0.00 0.00 0.00 76 1009.1
20260831013324 82 239 1.0 4.0 0.00 0.00 0.00 77 1009.0
20260831011303 82 211 2.0 7.0 0.00 0.00 0.00 76 1009.0
20260831010303 82 212 2.0 5.0 0.00 0.00 0.00 74 1008.9
20260831004324 82 223 3.0 7.0 0.00 0.00 0.00 74 1009.0
20260831003302 83 213 2.0 10.0 0.00 0.00 0.00 73 1009.2
20260831001303 85 217 2.0 9.0 0.00 0.00 0.00 71 1009.2
20260831000303 85 211 2.0 9.0 0.00 0.00 0.00 71 1009.1
20260830234303 86 223 3.0 7.0 0.00 0.00 0.00 71 1009.1
20260830233302 86 219 2.0 7.0 0.00 0.00 0.00 70 1009.0
20260830231303 86 196 1.0 9.0 0.00 0.00 0.00 70 1009.3
20260830230303 86 221 2.0 9.0 0.00 0.00 0.00 71 1009.4
20260830224303 87 213 2.0 8.0 0.00 0.00 0.00 70 1009.4
20260830223303 87 203 2.0 8.0 0.00 0.00 0.00 71 1009.5
20260830221303 87 221 3.0 7.0 0.00 0.00 0.00 71 1009.9
20260830220303 87 225 3.0 10.0 0.00 0.00 0.00 71 1009.9
20260830214303 87 234 3.0 7.0 0.00 0.00 0.00 71 1010.0
20260830213303 87 239 3.0 9.0 0.00 0.00 0.00 70 1010.2
20260830211303 87 225 3.0 11.0 0.00 0.00 0.00 69 1010.6
20260830210303 87 210 3.0 9.0 0.00 0.00 0.00 69 1010.7
20260830204303 86 208 3.0 10.0 0.00 0.00 0.00 71 1010.8
20260830203302 86 210 2.0 8.0 0.00 0.00 0.00 72 1010.8
20260830201303 86 227 3.0 10.0 0.00 0.00 0.00 72 1010.8
20260830200303 86 187 2.0 7.0 0.00 0.00 0.00 72 1010.7
20260830194303 85 227 2.0 6.0 0.00 0.00 0.00 73 1010.9